Tracking 17558 objects as of 9-February-2016
HD Live streaming from Space Station
objects crossing your sky now

BREEZE-M DEB

Track BREEZE-M DEB now!
10-day predictions


NORAD ID: 36958
Int'l Code: 2006-006CQ
Perigee: 391.3 km
Apogee: 13,250.5 km
Inclination: 51.7 °
Period: 251.3 minutes
Semi major axis: 13191 km
RCS: 0.0224 m2 (small)
Launch date: February 28, 2006
Source: Commonwealth of Independent States (former USSR) (CIS)
Launch site: TYURATAM MISSILE AND SPACE COMPLEX (TTMTR)

Note: This is SATELLITE DEBRIS
Your satellite tracking list
Your tracking list is empty





NASA's NSSDC Master Catalog

Two Line Element Set (TLE):
1 36958U 06006CQ  16034.93499428  .00005130  00000-0  23925-2 0  9997
2 36958  51.7459 259.0058 4873907 224.0671  84.8344  5.7298181915156
Source of the keplerian elements: AFSPC

N2YO: 1066